Weather History for Teterboro, NJ

Change the Weather History Date:

Saturday, June 9, 2012

  Actual Average Record
Temperature  
Mean Temperature 72 °F -  
Max Temperature 80 °F 76 °F 100 °F (2011)
Min Temperature 63 °F 56 °F 45 °F (1980)
Cooling Degree Days 6    
Growing Degree Days 22 (Base 50)    
Moisture  
Dew Point 57 °F    
Average Humidity 60    
Maximum Humidity 75    
Minimum Humidity 45    
Precipitation  
Precipitation 0.00 in - - ()
Sea Level Pressure  
Sea Level Pressure 29.90 in    
Wind  
Wind Speed 2 mph (NW)    
Max Wind Speed 9 mph    
Max Gust Speed -    
Visibility 10 miles    
Events Rain    
Averages and records for this station are not official NWS values.
T = Trace of Precipitation, MM = Missing Value Source: NWS Daily Summary

Daily Weather History Graph

Daily Weather History Graph

Search for Another Location

Airport:

Trip Planner

Search our weather history database for the weather conditions in past years. The results will help you decide how hot, cold, wet, or windy it might be!

Date:

Astronomy

Jun. 09, 2012 Rise Set
Actual Time 5:24 AM EDT 8:27 PM EDT
Civil Twilight 4:51 AM EDT 9:00 PM EDT
Nautical Twilight 4:08 AM EDT 9:42 PM EDT
Astronomical Twilight 3:18 AM EDT 10:32 PM EDT
Moon No Moon Rise 11:08 AM EDT (6/9)
Length of Visible Light 16h 09m
Length of Day
15h 02m
Waning Gibbous, 68% of the Moon is Illuminated
Jun 9
Waning Gibbous
Jun 11
Last Quarter
Jun 19
New
Jun 26
First Quarter
Jul 3
Full

Hourly Weather History & Observations

Time (EDT) Temp. Heat Index Dew Point Humidity Pressure Visibility Wind Dir Wind Speed Gust Speed Precip Events Conditions
12:51 AM 66.9 °F - 55.9 °F 68% 29.85 in 10.0 mi Calm Calm - N/A   Clear
1:51 AM 66.9 °F - 54.0 °F 63% 29.85 in 10.0 mi Calm Calm - N/A   Clear
2:51 AM 66.0 °F - 54.0 °F 65% 29.86 in 10.0 mi Calm Calm - N/A   Clear
3:51 AM 64.4 °F - 55.4 °F 73% 29.85 in 10.0 mi Calm Calm - N/A   Clear
4:51 AM 64.0 °F - 55.0 °F 73% 29.86 in 10.0 mi Calm Calm - N/A   Clear
5:51 AM 63.0 °F - 55.0 °F 75% 29.88 in 10.0 mi Calm Calm - N/A   Clear
6:51 AM 66.0 °F - 55.9 °F 70% 29.89 in 10.0 mi Calm Calm - N/A   Clear
7:51 AM 68.0 °F - 57.9 °F 70% 29.91 in 10.0 mi Calm Calm - N/A   Clear
8:51 AM 69.1 °F - 55.9 °F 63% 29.91 in 10.0 mi Calm Calm - N/A   Overcast
9:51 AM 70.0 °F - 53.1 °F 55% 29.93 in 10.0 mi Calm Calm - 0.00 in   Overcast
10:51 AM 71.1 °F - 53.1 °F 53% 29.92 in 10.0 mi NNW 3.5 mph - N/A   Overcast
11:51 AM 75.0 °F - 55.0 °F 50% 29.92 in 10.0 mi Variable 4.6 mph - N/A   Partly Cloudy
12:51 PM 73.9 °F - 55.9 °F 53% 29.92 in 10.0 mi WNW 5.8 mph - N/A   Mostly Cloudy
1:51 PM 75.0 °F - 57.0 °F 53% 29.91 in 10.0 mi Calm Calm - N/A   Mostly Cloudy
2:51 PM 78.8 °F - 57.2 °F 47% 29.89 in 10.0 mi West 4.6 mph - N/A   Clear
3:51 PM 80.1 °F 80.4 °F 57.0 °F 45% 29.88 in 10.0 mi West 9.2 mph - N/A   Mostly Cloudy
4:51 PM 78.1 °F - 57.9 °F 50% 29.88 in 10.0 mi WNW 8.1 mph - N/A   Partly Cloudy
5:51 PM 77.0 °F - 60.1 °F 56% 29.89 in 10.0 mi NW 5.8 mph - 0.00 in Rain Light Rain
6:51 PM 77.0 °F - 59.0 °F 54% 29.89 in 10.0 mi NW 5.8 mph - 0.00 in   Scattered Clouds
7:51 PM 75.9 °F - 59.0 °F 56% 29.89 in 10.0 mi NW 5.8 mph - N/A   Mostly Cloudy
8:51 PM 73.0 °F - 59.0 °F 61% 29.91 in 10.0 mi Calm Calm - N/A   Scattered Clouds
9:51 PM 72.0 °F - 60.1 °F 66% 29.94 in 10.0 mi West 3.5 mph - N/A   Clear
10:51 PM 72.0 °F - 60.1 °F 66% 29.96 in 10.0 mi NNW 4.6 mph - N/A   Mostly Cloudy
11:51 PM 71.1 °F - 59.0 °F 66% 29.97 in 10.0 mi Calm Calm - N/A   Mostly Cloudy